Content
SEND FEEDBACK

Daily
Averages
Monthly
Summary
United States of America

CHICAGO, ILLINOIS


Home > North America > United States > Illinois
Elevation: 674 feet     Latitude: 41 59N     Longitude: 087 54W

WEATHER
 
SELECT A DAY
Number of Records: 199,557;   Date Range: 7/8/95 - 12/17/14
 
SHARE

PRINT THIS DATA

[ ← Previous Day ]
WEATHER ALMANAC - MARCH 23, 2013
[ Next Day → ]
[ °C ]   °F
Weather ElementAverageHighLow
Temperature32.1 °F39 °F (1:52 pm)24.1 °F (6:52 am)
Dewpoint21.3 °F26.1 °F (7:52 pm)18 °F (5:52 pm)
Humidity65.8 %84 % (6:52 am)46 % (1:52 pm)
Barometer30.11 in30.16 in (9:52 am)30.06 in (10:52 pm)
Wind Speed5.2 mph10.4 mph (8:25 pm)
Wind Gust17.3 mph (1:52 pm)
Weather ElementAverage
Visibility9.6 mi
Wind DirectionENE (53.3 °)

Weather ElementTotal
Precipitation---
Heating Degree Days33.5 (Base 65)
Averaged from 24 records on March 23, 2013
WEATHER CONDITIONS BREAKOUT
WIND DIRECTION BREAKOUT
WEATHER BY HOUR - MARCH 23, 2013
[ °C ]   °F
Local TimeTemperatureDewpointHumidityBarometerVisibilityWind DirectionWind SpeedGust SpeedPrecipitationEventsConditions
1:52 AM25.0 °F19.0 °F78 %30.10 in10.0 miCalmClear
2:52 AM25.0 °F19.9 °F81 %30.10 in10.0 miCalmClear
3:52 AM25.0 °F19.9 °F81 %30.10 in9.0 miCalmClear
4:52 AM25.0 °F19.9 °F81 %30.10 in9.0 miCalmClear
5:52 AM25.0 °F19.9 °F81 %30.11 in8.0 miCalmClear
6:52 AM24.1 °F19.9 °F84 %30.13 in8.0 miCalmClear
7:52 AM26.1 °F21.0 °F81 %30.14 in7.0 miCalmClear
8:52 AM32.0 °F23.0 °F69 %30.14 in9.0 miNorth (10°)4.6 mphClear
9:52 AM35.1 °F21.9 °F59 %30.16 in10.0 miNorth (360°)3.5 mphClear
10:52 AM35.1 °F19.0 °F52 %30.16 in10.0 miWSW (250°)4.6 mphClear
11:52 AM37.0 °F21.0 °F52 %30.15 in10.0 miVariable5.8 mphScattered Clouds
12:52 PM37.0 °F21.9 °F54 %30.14 in10.0 miNE (50°)8.1 mphClear
1:52 PM39.0 °F19.9 °F46 %30.13 in10.0 miNNE (30°)9.2 mph17.3 mphClear
2:52 PM37.9 °F19.0 °F47 %30.12 in10.0 miVariable4.6 mphClear
3:52 PM37.9 °F21.0 °F51 %30.12 in10.0 miNE (40°)9.2 mphClear
4:52 PM37.0 °F19.0 °F48 %30.11 in10.0 miENE (70°)9.2 mphClear
5:52 PM35.1 °F18.0 °F50 %30.09 in10.0 miENE (60°)9.2 mphClear
6:52 PM33.1 °F24.1 °F70 %30.09 in10.0 miNE (50°)8.1 mphClear
7:52 PM33.1 °F26.1 °F75 %30.10 in10.0 miEast (80°)8.1 mphOvercast
8:25 PM33.8 °F24.8 °F70 %30.07 in10.0 miENE (60°)10.4 mphOvercast
8:52 PM32.0 °F23.0 °F69 %30.08 in10.0 miENE (60°)8.1 mph16.1 mphMostly Cloudy
9:52 PM33.1 °F25.0 °F72 %30.07 in10.0 miNE (40°)8.1 mphOvercast
10:52 PM33.1 °F21.9 °F64 %30.06 in10.0 miNE (50°)6.9 mphOvercast
11:52 PM34.0 °F23.0 °F64 %30.07 in10.0 miENE (70°)6.9 mphOvercast
Hourly data recorded from KPWK, located miles away from Chicago, Illinois







STORIES FROM OUR PARTNERS